Date String (YYYY-MM-DD hh:mm:ss) UTC,Instrument flags,absolute air pressure of the measurement (hPa),sample flow rate (lpm),inlet stack bypass flow (lpm),air temperature of the measurement (°C),ambient temperature measured by the external sensor (°C),aerosol sample conditioner tube jacket temperature (°C),OPC LED temperature (°C),internal box temperature (°C),relative humidity of the measurement (%),span deviation,mass concentration of particles derived from Lorenz-Mie calculation of OPC scattering (μg/m³),mass concentration of particles derived from Lorenz-Mie calculation of OPC scattering (μg/m³),mass concentration of particles derived from Lorenz-Mie calculation of OPC scattering (μg/m³)
DateTimeUTC,F1_M11,P_M11,Q1_M11,Q2_M11,T1_M11,T2_M11,T3_M11,T4_M11,T5_M11,U1_M11,ZSPAN_M11,X0_M11,X2_M11,X1_M11
2024-01-07 11:00:00,SystemResetWarning,0816.8,5.00,000.00,018.7,017.7,000.0,027.2,020.0,8.0,0000.0,0001.49,0001.00,0000.79
2024-01-07 11:01:00,SystemResetWarning,0816.7,5.00,000.00,018.7,017.6,000.0,027.2,020.0,8.0,0000.0,0001.52,0001.01,0000.79
2024-01-07 11:02:00,SystemResetWarning,0816.7,5.01,000.00,018.7,017.5,000.0,027.2,020.0,8.0,0000.0,0001.48,0001.00,0000.80
2024-01-07 11:03:00,SystemResetWarning,0816.7,5.00,000.00,018.7,017.5,000.0,027.2,020.0,8.1,0000.0,0001.53,0001.02,0000.80
2024-01-07 11:04:00,SystemResetWarning,0816.7,5.01,000.00,018.7,017.4,000.0,027.2,020.0,8.0,0000.0,0001.52,0001.01,0000.80
2024-01-07 11:05:00,SystemResetWarning,0816.7,5.00,000.00,018.7,017.4,000.0,027.2,020.0,8.1,0000.0,0001.63,0001.05,0000.81
2024-01-07 11:06:00,SystemResetWarning,0816.7,4.99,000.00,018.7,017.3,000.0,027.2,020.0,8.1,0000.0,0001.72,0001.07,0000.82
2024-01-07 11:07:00,SystemResetWarning,0816.7,5.00,000.00,018.7,017.3,000.0,027.2,020.0,8.1,0000.0,0001.71,0001.08,0000.83
2024-01-07 11:08:00,SystemResetWarning,0816.7,5.00,000.00,018.7,017.3,000.0,027.2,020.0,8.1,0000.0,0001.67,0001.07,0000.83
2024-01-07 11:09:00,SystemResetWarning,0816.7,5.00,000.00,018.6,017.2,000.0,027.2,020.0,8.1,0000.0,0001.59,0001.05,0000.82
2024-01-07 11:10:00,SystemResetWarning,0816.7,5.01,000.00,018.6,017.2,000.0,027.2,020.0,8.1,0000.0,0001.60,0001.04,0000.81
2024-01-07 11:11:00,SystemResetWarning,0816.7,5.01,000.00,018.6,017.2,000.0,027.2,020.0,8.1,0000.0,0001.65,0001.05,0000.81
2024-01-07 11:12:00,SystemResetWarning,0816.7,5.00,000.00,018.6,017.2,000.0,027.2,020.0,8.0,0000.0,0001.69,0001.07,0000.82
2024-01-07 11:13:00,SystemResetWarning,0816.7,4.99,000.00,018.6,017.2,000.0,027.2,020.0,8.0,0000.0,0001.76,0001.10,0000.82
2024-01-07 11:14:00,SystemResetWarning,0816.7,4.99,000.00,018.6,017.2,000.0,027.2,020.0,8.0,0000.0,0001.72,0001.08,0000.82
2024-01-07 11:15:00,SystemResetWarning,0816.7,5.00,000.00,018.6,017.2,000.0,027.2,020.0,7.9,0000.0,0001.71,0001.07,0000.82
2024-01-07 11:16:00,SystemResetWarning,0816.7,5.01,000.00,018.6,017.3,000.0,027.2,020.2,8.0,0000.0,0001.67,0001.04,0000.80
2024-01-07 11:17:00,SystemResetWarning,0816.7,5.01,000.00,018.8,018.1,000.0,027.1,020.6,7.9,0000.0,0001.57,0001.00,0000.79
2024-01-07 11:18:00,SystemResetWarning,0816.7,4.99,000.00,018.9,018.8,000.0,027.1,020.8,7.9,0000.0,0001.56,0000.99,0000.78
2024-01-07 11:19:00,SystemResetWarning,0816.7,4.99,000.00,019.0,018.8,000.0,027.1,020.5,7.8,0000.0,0001.56,0000.99,0000.78
2024-01-07 11:20:00,SystemResetWarning,0816.6,5.00,000.00,018.9,018.7,000.0,027.1,020.3,7.8,0000.0,0001.70,0001.00,0000.78
2024-01-07 11:21:00,SystemResetWarning,0816.6,5.01,000.00,018.9,018.6,000.0,027.1,020.2,7.8,0000.0,0001.72,0001.01,0000.78
2024-01-07 11:22:00,SystemResetWarning,0816.6,5.01,000.00,018.9,018.4,000.0,027.1,020.0,7.8,0000.0,0001.65,0001.01,0000.77
2024-01-07 11:23:00,SystemResetWarning,0816.7,5.00,000.00,018.8,018.3,000.0,027.1,020.0,7.8,0000.0,0001.63,0001.00,0000.77
2024-01-07 11:24:00,SystemResetWarning,0816.6,4.99,000.00,018.8,018.1,000.0,027.1,020.0,7.7,0000.0,0001.56,0000.97,0000.77
2024-01-07 11:25:00,SystemResetWarning,0816.6,4.99,000.00,018.8,018.0,000.0,027.1,020.0,7.7,0000.0,0001.54,0000.96,0000.77
2024-01-07 11:26:00,SystemResetWarning,0816.6,5.01,000.00,018.8,017.8,000.0,027.2,020.0,7.8,0000.0,0001.64,0000.99,0000.77
2024-01-07 11:27:00,SystemResetWarning,0816.6,5.00,000.00,018.8,017.8,000.0,027.2,020.0,7.8,0000.0,0001.65,0001.02,0000.78
2024-01-07 11:28:00,SystemResetWarning,0816.5,5.00,000.00,018.8,017.7,000.0,027.2,020.0,7.8,0000.0,0001.67,0001.04,0000.78
2024-01-07 11:29:00,SystemResetWarning,0816.5,5.00,000.00,018.7,017.6,000.0,027.2,020.0,7.8,0000.0,0001.61,0001.02,0000.78
2024-01-07 11:30:00,SystemResetWarning,0816.5,5.00,000.00,018.7,017.6,000.0,027.2,020.0,7.8,0000.0,0001.73,0001.05,0000.77
2024-01-07 11:31:00,SystemResetWarning,0816.5,5.00,000.00,018.7,017.5,000.0,027.2,020.0,7.7,0000.0,0001.73,0001.07,0000.77
2024-01-07 11:32:00,SystemResetWarning,0816.5,5.00,000.00,018.7,017.5,000.0,027.2,020.0,7.7,0000.0,0001.71,0001.07,0000.77
2024-01-07 11:33:00,SystemResetWarning,0816.5,5.00,000.00,018.7,017.5,000.0,027.2,020.0,7.7,0000.0,0001.77,0001.08,0000.77
2024-01-07 11:34:00,SystemResetWarning,0816.4,5.00,000.00,018.7,017.5,000.0,027.2,020.0,7.6,0000.0,0001.81,0001.09,0000.77
2024-01-07 11:35:00,SystemResetWarning,0816.4,5.01,000.00,018.7,017.5,000.0,027.2,020.0,7.6,0000.0,0001.89,0001.12,0000.76
2024-01-07 11:36:00,SystemResetWarning,0816.4,5.00,000.00,018.7,017.4,000.0,027.2,020.0,7.6,0000.0,0001.88,0001.11,0000.76
2024-01-07 11:37:00,SystemResetWarning,0816.4,5.00,000.00,018.7,017.4,000.0,027.2,020.0,7.6,0000.0,0001.89,0001.11,0000.75
2024-01-07 11:38:00,SystemResetWarning,0816.4,5.01,000.00,018.7,017.4,000.0,027.2,020.0,7.6,0000.0,0001.82,0001.09,0000.76
2024-01-07 11:39:00,SystemResetWarning,0816.4,5.01,000.00,018.7,017.4,000.0,027.2,020.0,7.5,0000.0,0001.76,0001.06,0000.75
2024-01-07 11:40:00,SystemResetWarning,0816.4,5.00,000.00,018.6,017.3,000.0,027.2,020.0,7.5,0000.0,0001.80,0001.06,0000.75
2024-01-07 11:41:00,SystemResetWarning,0816.4,5.00,000.00,018.7,017.3,000.0,027.2,020.0,7.5,0000.0,0001.74,0001.06,0000.76
2024-01-07 11:42:00,SystemResetWarning,0816.4,5.00,000.00,018.6,017.3,000.0,027.2,020.0,7.5,0000.0,0001.64,0001.03,0000.76
2024-01-07 11:43:00,SystemResetWarning,0816.3,5.00,000.00,018.6,017.3,000.0,027.2,020.0,7.5,0000.0,0001.67,0001.03,0000.75
2024-01-07 11:44:00,SystemResetWarning,0816.2,5.00,000.00,018.6,017.3,000.0,027.2,020.0,7.5,0000.0,0001.66,0001.03,0000.75
2024-01-07 11:45:00,SystemResetWarning,0816.2,5.00,000.00,018.7,017.5,000.0,027.2,020.2,7.5,0000.0,0001.64,0001.03,0000.75
2024-01-07 11:46:00,SystemResetWarning,0816.2,5.00,000.00,018.8,018.3,000.0,027.1,020.6,7.5,0000.0,0001.60,0001.02,0000.75
2024-01-07 11:47:00,SystemResetWarning,0816.2,5.00,000.00,018.9,018.8,000.0,027.1,020.7,7.5,0000.0,0001.64,0001.04,0000.75
2024-01-07 11:48:00,SystemResetWarning,0816.2,4.99,000.00,018.9,018.8,000.0,027.1,020.4,7.5,0000.0,0001.62,0001.05,0000.75
2024-01-07 11:49:00,SystemResetWarning,0816.2,5.00,000.00,018.9,018.7,000.0,027.1,020.2,7.5,0000.0,0001.64,0001.05,0000.75
2024-01-07 11:50:00,SystemResetWarning,0816.3,5.01,000.00,018.9,018.5,000.0,027.1,020.1,7.5,0000.0,0001.70,0001.07,0000.75
2024-01-07 11:51:00,SystemResetWarning,0816.2,5.00,000.00,018.9,018.3,000.0,027.1,020.0,7.6,0000.0,0001.63,0001.05,0000.75
2024-01-07 11:52:00,SystemResetWarning,0816.2,5.00,000.00,018.8,018.2,000.0,027.1,020.0,7.6,0000.0,0001.61,0001.03,0000.74
2024-01-07 11:53:00,SystemResetWarning,0816.2,5.00,000.00,018.8,018.0,000.0,027.1,020.0,7.7,0000.0,0001.60,0001.02,0000.74
2024-01-07 11:54:00,SystemResetWarning,0816.2,4.99,000.00,018.8,017.9,000.0,027.2,020.0,7.6,0000.0,0001.55,0001.02,0000.75
2024-01-07 11:55:00,SystemResetWarning,0816.2,5.00,000.00,018.8,017.8,000.0,027.2,020.0,7.6,0000.0,0001.55,0001.03,0000.76
2024-01-07 11:56:00,SystemResetWarning,0816.2,4.99,000.00,018.8,017.7,000.0,027.2,020.0,7.7,0000.0,0001.63,0001.05,0000.78
2024-01-07 11:57:00,SystemResetWarning,0816.2,5.01,000.00,018.8,017.6,000.0,027.2,020.0,7.7,0000.0,0001.69,0001.07,0000.78
2024-01-07 11:58:00,SystemResetWarning,0816.3,5.02,000.00,018.7,017.6,000.0,027.2,020.0,7.7,0000.0,0001.74,0001.07,0000.77
2024-01-07 11:59:00,SystemResetWarning,0816.3,4.99,000.00,018.7,017.6,000.0,027.2,020.0,7.6,0000.0,0001.81,0001.09,0000.77
